Time,TemperatureF,DewpointF,PressureIn,WindDirection,WindDirectionDegrees,WindSpeedMPH,WindSpeedGustMPH,Humidity,HourlyPrecipIn,Conditions,Clouds,dailyrainin,SoftwareType,DateUTC
2013-04-13 00:00:00,41.7,36.3,29.82,West,280,5.0,9.0,81,0.00,,,0.45,WUHU216DAVISVP2,2013-04-13 04:00:00,
2013-04-13 00:07:00,41.7,36.3,29.81,WSW,240,6.0,8.0,81,0.00,,,0.00,WUHU216DAVISVP2,2013-04-13 04:07:00,
2013-04-13 00:12:00,41.7,36.0,29.81,WSW,241,5.0,8.0,80,0.00,,,0.00,WUHU216DAVISVP2,2013-04-13 04:12:00,
2013-04-13 00:19:00,41.8,36.1,29.81,WSW,257,9.0,10.0,80,0.00,,,0.00,WUHU216DAVISVP2,2013-04-13 04:19:00,
2013-04-13 00:24:00,41.9,36.2,29.82,West,274,3.0,10.0,80,0.00,,,0.00,WUHU216DAVISVP2,2013-04-13 04:24:00,
2013-04-13 00:29:00,41.9,35.9,29.81,WSW,239,4.0,10.0,79,0.00,,,0.00,WUHU216DAVISVP2,2013-04-13 04:29:00,
2013-04-13 00:35:00,42.0,36.0,29.81,WSW,252,5.0,10.0,79,0.00,,,0.00,WUHU216DAVISVP2,2013-04-13 04:35:00,
2013-04-13 00:42:00,41.9,35.9,29.81,WSW,246,4.0,9.0,79,0.00,,,0.00,WUHU216DAVISVP2,2013-04-13 04:42:00,
2013-04-13 00:47:00,41.7,36.0,29.81,SW,229,5.0,8.0,80,0.00,,,0.00,WUHU216DAVISVP2,2013-04-13 04:47:00,
2013-04-13 00:52:00,41.7,36.0,29.81,SW,236,1.0,7.0,80,0.00,,,0.00,WUHU216DAVISVP2,2013-04-13 04:52:00,
2013-04-13 00:57:00,41.6,35.9,29.82,SSW,205,3.0,7.0,80,0.00,,,0.00,WUHU216DAVISVP2,2013-04-13 04:57:00,
2013-04-13 01:02:00,41.6,35.9,29.82,South,189,3.0,6.0,80,0.00,,,0.00,WUHU216DAVISVP2,2013-04-13 05:02:00,
2013-04-13 01:08:00,41.7,36.3,29.82,SW,233,3.0,8.0,81,0.00,,,0.00,WUHU216DAVISVP2,2013-04-13 05:08:00,
2013-04-13 01:14:00,41.7,36.3,29.82,West,269,6.0,8.0,81,0.00,,,0.00,WUHU216DAVISVP2,2013-04-13 05:14:00,
2013-04-13 01:19:00,41.7,36.3,29.82,WSW,243,4.0,8.0,81,0.00,,,0.00,WUHU216DAVISVP2,2013-04-13 05:19:00,
2013-04-13 01:24:00,41.8,36.4,29.82,SW,235,4.0,7.0,81,0.00,,,0.00,WUHU216DAVISVP2,2013-04-13 05:24:00,
2013-04-13 01:29:00,41.9,36.5,29.82,SW,233,2.0,8.0,81,0.00,,,0.00,WUHU216DAVISVP2,2013-04-13 05:29:00,
2013-04-13 01:34:00,41.9,36.5,29.82,SSW,195,3.0,9.0,81,0.00,,,0.00,WUHU216DAVISVP2,2013-04-13 05:34:00,
2013-04-13 01:40:00,41.9,36.2,29.82,SSW,200,1.0,9.0,80,0.00,,,0.00,WUHU216DAVISVP2,2013-04-13 05:40:00,
2013-04-13 01:45:00,41.9,36.2,29.82,SSW,203,2.0,9.0,80,0.00,,,0.00,WUHU216DAVISVP2,2013-04-13 05:45:00,
2013-04-13 01:50:00,41.9,36.2,29.81,SW,235,2.0,9.0,80,0.00,,,0.00,WUHU216DAVISVP2,2013-04-13 05:50:00,
2013-04-13 01:55:00,41.9,36.2,29.81,SSW,211,2.0,8.0,80,0.00,,,0.00,WUHU216DAVISVP2,2013-04-13 05:55:00,
2013-04-13 02:00:00,41.9,36.2,29.81,SSW,197,0.0,6.0,80,0.00,,,0.00,WUHU216DAVISVP2,2013-04-13 06:00:00,
2013-04-13 02:05:00,41.8,36.4,29.81,SW,214,4.0,6.0,81,0.00,,,0.00,WUHU216DAVISVP2,2013-04-13 06:05:00,
2013-04-13 02:10:00,41.8,36.4,29.81,SSW,213,2.0,6.0,81,0.00,,,0.00,WUHU216DAVISVP2,2013-04-13 06:10:00,
2013-04-13 02:15:00,41.7,36.3,29.81,West,264,2.0,6.0,81,0.00,,,0.00,WUHU216DAVISVP2,2013-04-13 06:15:00,
2013-04-13 02:21:00,41.7,36.3,29.81,SW,231,4.0,6.0,81,0.00,,,0.00,WUHU216DAVISVP2,2013-04-13 06:21:00,
2013-04-13 02:27:00,41.6,36.2,29.81,WSW,252,2.0,6.0,81,0.00,,,0.00,WUHU216DAVISVP2,2013-04-13 06:27:00,
2013-04-13 02:32:00,41.6,36.2,29.81,WSW,248,5.0,7.0,81,0.00,,,0.00,WUHU216DAVISVP2,2013-04-13 06:32:00,
2013-04-13 02:37:00,41.6,36.2,29.81,SW,215,3.0,7.0,81,0.00,,,0.00,WUHU216DAVISVP2,2013-04-13 06:37:00,
2013-04-13 02:43:00,41.6,36.2,29.81,SSW,201,0.0,7.0,81,0.00,,,0.00,WUHU216DAVISVP2,2013-04-13 06:43:00,
2013-04-13 02:48:00,41.6,36.2,29.81,West,280,0.0,7.0,81,0.00,,,0.00,WUHU216DAVISVP2,2013-04-13 06:48:00,
2013-04-13 02:54:00,41.6,36.2,29.81,WSW,243,2.0,7.0,81,0.00,,,0.00,WUHU216DAVISVP2,2013-04-13 06:54:00,
2013-04-13 02:59:00,41.7,36.0,29.81,WSW,237,5.0,7.0,80,0.00,,,0.00,WUHU216DAVISVP2,2013-04-13 06:59:00,
2013-04-13 03:04:00,41.9,36.2,29.81,West,264,0.0,7.0,80,0.00,,,0.00,WUHU216DAVISVP2,2013-04-13 07:04:00,
2013-04-13 03:09:00,41.9,35.9,29.81,SW,214,1.0,6.0,79,0.00,,,0.00,WUHU216DAVISVP2,2013-04-13 07:09:00,
2013-04-13 03:14:00,41.9,36.2,29.81,WSW,246,0.0,5.0,80,0.00,,,0.00,WUHU216DAVISVP2,2013-04-13 07:14:00,
2013-04-13 03:20:00,41.9,36.2,29.81,WSW,249,1.0,3.0,80,0.00,,,0.00,WUHU216DAVISVP2,2013-04-13 07:20:00,
2013-04-13 03:27:00,41.8,36.1,29.81,SW,228,0.0,3.0,80,0.00,,,0.00,WUHU216DAVISVP2,2013-04-13 07:27:00,
2013-04-13 03:32:00,41.7,36.0,29.81,West,265,2.0,3.0,80,0.00,,,0.00,WUHU216DAVISVP2,2013-04-13 07:32:00,
2013-04-13 03:37:00,41.7,36.3,29.81,SW,224,0.0,3.0,81,0.00,,,0.00,WUHU216DAVISVP2,2013-04-13 07:37:00,
2013-04-13 03:43:00,41.7,36.3,29.81,SSW,210,1.0,6.0,81,0.00,,,0.00,WUHU216DAVISVP2,2013-04-13 07:43:00,
2013-04-13 03:48:00,41.7,36.3,29.81,SW,233,2.0,6.0,81,0.00,,,0.00,WUHU216DAVISVP2,2013-04-13 07:48:00,
2013-04-13 03:53:00,41.8,36.1,29.81,WSW,245,3.0,6.0,80,0.00,,,0.00,WUHU216DAVISVP2,2013-04-13 07:53:00,
2013-04-13 04:00:00,41.9,35.9,29.81,WSW,253,2.0,6.0,79,0.00,,,0.00,WUHU216DAVISVP2,2013-04-13 08:00:00,
2013-04-13 04:06:00,42.1,35.8,29.81,WSW,249,3.0,6.0,78,0.00,,,0.00,WUHU216DAVISVP2,2013-04-13 08:06:00,
2013-04-13 04:12:00,42.3,36.0,29.81,WSW,257,3.0,9.0,78,0.00,,,0.00,WUHU216DAVISVP2,2013-04-13 08:12:00,
2013-04-13 04:20:00,42.4,35.7,29.81,West,274,3.0,9.0,77,0.00,,,0.00,WUHU216DAVISVP2,2013-04-13 08:20:00,
2013-04-13 04:25:00,42.4,35.7,29.81,West,271,2.0,9.0,77,0.00,,,0.00,WUHU216DAVISVP2,2013-04-13 08:25:00,
2013-04-13 04:30:00,42.4,35.7,29.81,WNW,288,1.0,7.0,77,0.00,,,0.00,WUHU216DAVISVP2,2013-04-13 08:30:00,
2013-04-13 04:35:00,42.4,35.7,29.81,West,278,2.0,6.0,77,0.00,,,0.00,WUHU216DAVISVP2,2013-04-13 08:35:00,
2013-04-13 04:40:00,42.4,35.7,29.81,SW,232,3.0,6.0,77,0.00,,,0.00,WUHU216DAVISVP2,2013-04-13 08:40:00,
2013-04-13 04:46:00,42.4,35.7,29.81,West,270,1.0,6.0,77,0.00,,,0.00,WUHU216DAVISVP2,2013-04-13 08:46:00,
2013-04-13 04:52:00,42.4,35.7,29.81,SW,231,1.0,4.0,77,0.00,,,0.00,WUHU216DAVISVP2,2013-04-13 08:52:00,
2013-04-13 04:59:00,42.3,35.6,29.81,SW,233,0.0,4.0,77,0.00,,,0.00,WUHU216DAVISVP2,2013-04-13 08:59:00,
2013-04-13 05:04:00,42.3,36.0,29.81,WSW,257,2.0,4.0,78,0.00,,,0.00,WUHU216DAVISVP2,2013-04-13 09:04:00,
2013-04-13 05:10:00,42.2,35.9,29.81,WSW,249,1.0,4.0,78,0.00,,,0.00,WUHU216DAVISVP2,2013-04-13 09:10:00,
2013-04-13 05:15:00,42.2,35.8,29.81,WSW,252,1.0,4.0,78,0.00,,,0.00,WUHU216DAVISVP2,2013-04-13 09:15:00,
2013-04-13 05:22:00,42.2,35.8,29.81,West,259,2.0,3.0,78,0.00,,,0.00,WUHU216DAVISVP2,2013-04-13 09:22:00,
2013-04-13 05:28:00,42.3,35.6,29.81,SW,229,1.0,5.0,77,0.00,,,0.00,WUHU216DAVISVP2,2013-04-13 09:28:00,
2013-04-13 05:34:00,42.2,35.9,29.81,SSW,207,1.0,5.0,78,0.00,,,0.00,WUHU216DAVISVP2,2013-04-13 09:34:00,
2013-04-13 05:39:00,42.1,36.1,29.81,SW,215,2.0,4.0,79,0.00,,,0.00,WUHU216DAVISVP2,2013-04-13 09:39:00,
2013-04-13 05:44:00,42.0,36.0,29.81,SW,235,0.0,3.0,79,0.00,,,0.00,WUHU216DAVISVP2,2013-04-13 09:44:00,
2013-04-13 05:49:00,41.8,36.1,29.81,WSW,238,0.0,3.0,80,0.00,,,0.00,WUHU216DAVISVP2,2013-04-13 09:49:00,
2013-04-13 05:55:00,41.6,36.2,29.81,SSW,205,1.0,3.0,81,0.00,,,0.00,WUHU216DAVISVP2,2013-04-13 09:55:00,
2013-04-13 06:02:00,41.5,36.1,29.81,SW,224,1.0,3.0,81,0.00,,,0.00,WUHU216DAVISVP2,2013-04-13 10:02:00,
2013-04-13 06:07:00,41.4,36.3,29.82,SW,228,0.0,3.0,82,0.00,,,0.00,WUHU216DAVISVP2,2013-04-13 10:07:00,
2013-04-13 06:12:00,41.4,36.3,29.82,SW,214,0.0,3.0,82,0.00,,,0.00,WUHU216DAVISVP2,2013-04-13 10:12:00,
2013-04-13 06:17:00,41.4,36.3,29.82,SSW,207,0.0,4.0,82,0.00,,,0.00,WUHU216DAVISVP2,2013-04-13 10:17:00,
2013-04-13 06:23:00,41.3,36.2,29.82,SSE,162,0.0,4.0,82,0.00,,,0.00,WUHU216DAVISVP2,2013-04-13 10:23:00,
2013-04-13 06:29:00,41.2,36.4,29.82,SSW,205,1.0,4.0,83,0.00,,,0.00,WUHU216DAVISVP2,2013-04-13 10:29:00,
2013-04-13 06:34:00,41.2,36.4,29.82,South,177,2.0,4.0,83,0.00,,,0.00,WUHU216DAVISVP2,2013-04-13 10:34:00,
2013-04-13 06:39:00,41.1,36.3,29.83,SE,137,0.0,2.0,83,0.00,,,0.00,WUHU216DAVISVP2,2013-04-13 10:39:00,
2013-04-13 06:45:00,41.2,36.7,29.83,SW,226,1.0,3.0,84,0.00,,,0.00,WUHU216DAVISVP2,2013-04-13 10:45:00,
2013-04-13 06:50:00,41.3,36.8,29.83,SSW,207,1.0,3.0,84,0.00,,,0.00,WUHU216DAVISVP2,2013-04-13 10:50:00,
2013-04-13 06:56:00,41.4,36.9,29.83,SW,235,2.0,3.0,84,0.00,,,0.00,WUHU216DAVISVP2,2013-04-13 10:56:00,
2013-04-13 07:01:00,41.5,36.7,29.83,West,264,0.0,3.0,83,0.00,,,0.00,WUHU216DAVISVP2,2013-04-13 11:01:00,
2013-04-13 07:07:00,41.6,36.8,29.83,WSW,255,1.0,4.0,83,0.00,,,0.00,WUHU216DAVISVP2,2013-04-13 11:07:00,
2013-04-13 07:12:00,41.7,36.9,29.83,WSW,240,1.0,4.0,83,0.00,,,0.00,WUHU216DAVISVP2,2013-04-13 11:12:00,
2013-04-13 07:17:00,41.8,36.7,29.83,WSW,239,2.0,4.0,82,0.00,,,0.00,WUHU216DAVISVP2,2013-04-13 11:17:00,
2013-04-13 07:22:00,41.9,37.1,29.83,South,191,1.0,4.0,83,0.00,,,0.00,WUHU216DAVISVP2,2013-04-13 11:22:00,
2013-04-13 07:29:00,42.0,36.9,29.83,SW,228,2.0,5.0,82,0.00,,,0.00,WUHU216DAVISVP2,2013-04-13 11:29:00,
2013-04-13 07:34:00,42.2,37.1,29.83,West,264,1.0,5.0,82,0.00,,,0.00,WUHU216DAVISVP2,2013-04-13 11:34:00,
2013-04-13 07:42:00,42.3,36.9,29.83,WSW,249,5.0,5.0,81,0.00,,,0.00,WUHU216DAVISVP2,2013-04-13 11:42:00,
2013-04-13 07:47:00,42.4,37.0,29.83,SW,214,1.0,6.0,81,0.00,,,0.00,WUHU216DAVISVP2,2013-04-13 11:47:00,
2013-04-13 07:54:00,42.5,37.1,29.83,SSW,212,2.0,6.0,81,0.00,,,0.00,WUHU216DAVISVP2,2013-04-13 11:54:00,
2013-04-13 08:01:00,42.5,37.1,29.84,WSW,243,0.0,6.0,81,0.00,,,0.00,WUHU216DAVISVP2,2013-04-13 12:01:00,
2013-04-13 08:06:00,42.7,37.3,29.84,SW,215,2.0,5.0,81,0.00,,,0.00,WUHU216DAVISVP2,2013-04-13 12:06:00,
2013-04-13 08:13:00,42.7,37.3,29.84,WSW,253,1.0,6.0,81,0.00,,,0.00,WUHU216DAVISVP2,2013-04-13 12:13:00,
2013-04-13 08:18:00,42.9,37.2,29.84,WSW,246,4.0,6.0,80,0.00,,,0.00,WUHU216DAVISVP2,2013-04-13 12:18:00,
2013-04-13 08:23:00,42.9,37.2,29.84,WSW,252,1.0,6.0,80,0.00,,,0.00,WUHU216DAVISVP2,2013-04-13 12:23:00,
2013-04-13 08:28:00,43.0,37.3,29.84,WSW,255,2.0,9.0,80,0.00,,,0.00,WUHU216DAVISVP2,2013-04-13 12:28:00,
2013-04-13 08:34:00,43.0,37.3,29.84,SSW,201,0.0,9.0,80,0.00,,,0.00,WUHU216DAVISVP2,2013-04-13 12:34:00,
2013-04-13 08:39:00,43.1,37.3,29.84,SSW,197,4.0,9.0,80,0.00,,,0.00,WUHU216DAVISVP2,2013-04-13 12:39:00,
2013-04-13 08:45:00,43.1,37.7,29.84,WSW,257,1.0,10.0,81,0.00,,,0.00,WUHU216DAVISVP2,2013-04-13 12:45:00,
2013-04-13 08:50:00,43.2,37.8,29.84,SW,232,3.0,10.0,81,0.00,,,0.00,WUHU216DAVISVP2,2013-04-13 12:50:00,
2013-04-13 08:56:00,43.1,37.7,29.84,WSW,249,6.0,9.0,81,0.00,,,0.00,WUHU216DAVISVP2,2013-04-13 12:56:00,
2013-04-13 09:01:00,43.2,37.8,29.84,SW,226,3.0,9.0,81,0.00,,,0.00,WUHU216DAVISVP2,2013-04-13 13:01:00,
2013-04-13 09:07:00,43.2,37.8,29.84,WSW,250,3.0,8.0,81,0.00,,,0.00,WUHU216DAVISVP2,2013-04-13 13:07:00,
2013-04-13 09:12:00,43.3,37.9,29.84,West,263,3.0,8.0,81,0.00,,,0.00,WUHU216DAVISVP2,2013-04-13 13:12:00,
2013-04-13 09:17:00,43.3,37.9,29.84,WSW,239,0.0,8.0,81,0.00,,,0.00,WUHU216DAVISVP2,2013-04-13 13:17:00,
2013-04-13 09:22:00,43.4,38.0,29.84,WSW,253,4.0,8.0,81,0.00,,,0.00,WUHU216DAVISVP2,2013-04-13 13:22:00,
2013-04-13 09:28:00,43.5,38.1,29.84,SW,215,2.0,8.0,81,0.00,,,0.00,WUHU216DAVISVP2,2013-04-13 13:28:00,
2013-04-13 09:35:00,43.6,37.9,29.84,WSW,243,6.0,8.0,80,0.00,,,0.00,WUHU216DAVISVP2,2013-04-13 13:35:00,
2013-04-13 09:41:00,43.7,38.0,29.84,SW,228,1.0,10.0,80,0.00,,,0.00,WUHU216DAVISVP2,2013-04-13 13:41:00,
2013-04-13 09:47:00,43.9,38.2,29.84,SSW,198,2.0,10.0,80,0.00,,,0.00,WUHU216DAVISVP2,2013-04-13 13:47:00,
2013-04-13 09:52:00,44.1,38.0,29.84,WSW,257,3.0,9.0,79,0.00,,,0.00,WUHU216DAVISVP2,2013-04-13 13:52:00,
2013-04-13 09:57:00,44.2,38.1,29.84,WSW,242,8.0,12.0,79,0.00,,,0.00,WUHU216DAVISVP2,2013-04-13 13:57:00,
2013-04-13 10:02:00,44.4,38.3,29.84,WSW,240,4.0,12.0,79,0.00,,,0.00,WUHU216DAVISVP2,2013-04-13 14:02:00,
2013-04-13 10:08:00,44.6,38.2,29.84,WSW,242,6.0,12.0,78,0.00,,,0.00,WUHU216DAVISVP2,2013-04-13 14:08:00,
2013-04-13 10:13:00,44.9,38.5,29.84,WSW,243,2.0,12.0,78,0.00,,,0.00,WUHU216DAVISVP2,2013-04-13 14:13:00,
2013-04-13 10:20:00,45.5,38.7,29.84,West,274,5.0,12.0,77,0.00,,,0.00,WUHU216DAVISVP2,2013-04-13 14:20:00,
2013-04-13 10:27:00,45.7,39.0,29.83,WSW,255,6.0,12.0,77,0.00,,,0.00,WUHU216DAVISVP2,2013-04-13 14:27:00,
2013-04-13 10:32:00,45.8,39.0,29.83,WSW,249,7.0,13.0,77,0.00,,,0.00,WUHU216DAVISVP2,2013-04-13 14:32:00,
2013-04-13 10:40:00,45.9,38.8,29.84,WSW,243,10.0,13.0,76,0.00,,,0.00,WUHU216DAVISVP2,2013-04-13 14:40:00,
2013-04-13 10:45:00,46.0,38.6,29.84,SW,215,10.0,13.0,75,0.00,,,0.00,WUHU216DAVISVP2,2013-04-13 14:45:00,
2013-04-13 10:50:00,45.8,38.7,29.85,SW,228,5.0,15.0,76,0.00,,,0.00,WUHU216DAVISVP2,2013-04-13 14:50:00,
2013-04-13 10:56:00,46.1,39.0,29.85,SW,233,9.0,15.0,76,0.00,,,0.00,WUHU216DAVISVP2,2013-04-13 14:56:00,
2013-04-13 11:02:00,46.1,38.7,29.85,West,281,7.0,14.0,75,0.00,,,0.00,WUHU216DAVISVP2,2013-04-13 15:02:00,
2013-04-13 11:07:00,46.3,38.5,29.85,SW,217,3.0,14.0,74,0.00,,,0.00,WUHU216DAVISVP2,2013-04-13 15:07:00,
2013-04-13 11:13:00,46.4,38.3,29.85,SSW,194,5.0,16.0,73,0.00,,,0.00,WUHU216DAVISVP2,2013-04-13 15:13:00,
2013-04-13 11:19:00,46.4,38.6,29.85,West,271,5.0,16.0,74,0.00,,,0.00,WUHU216DAVISVP2,2013-04-13 15:19:00,
2013-04-13 11:25:00,46.7,38.9,29.85,SSW,193,3.0,15.0,74,0.00,,,0.00,WUHU216DAVISVP2,2013-04-13 15:25:00,
2013-04-13 11:30:00,47.1,39.0,29.85,West,263,4.0,14.0,73,0.00,,,0.00,WUHU216DAVISVP2,2013-04-13 15:30:00,
2013-04-13 11:35:00,47.0,38.2,29.85,WSW,240,12.0,17.0,71,0.00,,,0.00,WUHU216DAVISVP2,2013-04-13 15:35:00,
2013-04-13 11:40:00,47.1,38.6,29.85,WSW,256,9.0,17.0,72,0.00,,,0.00,WUHU216DAVISVP2,2013-04-13 15:40:00,
2013-04-13 11:46:00,47.3,38.5,29.85,West,259,6.0,16.0,71,0.00,,,0.00,WUHU216DAVISVP2,2013-04-13 15:46:00,
2013-04-13 11:52:00,47.5,38.7,29.85,WSW,239,12.0,16.0,71,0.00,,,0.00,WUHU216DAVISVP2,2013-04-13 15:52:00,
2013-04-13 11:57:00,47.4,38.2,29.85,SW,236,6.0,14.0,70,0.00,,,0.00,WUHU216DAVISVP2,2013-04-13 15:57:00,
2013-04-13 12:03:00,47.3,38.1,29.85,WSW,240,4.0,13.0,70,0.00,,,0.00,WUHU216DAVISVP2,2013-04-13 16:03:00,
2013-04-13 12:09:00,47.3,38.5,29.85,SSE,160,2.0,13.0,71,0.00,,,0.00,WUHU216DAVISVP2,2013-04-13 16:09:00,
2013-04-13 12:16:00,47.3,38.4,29.85,SW,228,6.0,12.0,71,0.00,,,0.00,WUHU216DAVISVP2,2013-04-13 16:16:00,
2013-04-13 12:21:00,47.1,38.3,29.85,West,271,7.0,12.0,71,0.00,,,0.00,WUHU216DAVISVP2,2013-04-13 16:21:00,
2013-04-13 12:26:00,47.0,38.2,29.85,West,271,3.0,12.0,71,0.00,,,0.00,WUHU216DAVISVP2,2013-04-13 16:26:00,
2013-04-13 12:32:00,47.1,38.3,29.85,SW,221,3.0,11.0,71,0.00,,,0.00,WUHU216DAVISVP2,2013-04-13 16:32:00,
2013-04-13 12:37:00,47.1,38.3,29.85,WSW,248,2.0,10.0,71,0.00,,,0.00,WUHU216DAVISVP2,2013-04-13 16:37:00,
2013-04-13 12:42:00,47.0,38.5,29.85,SW,228,2.0,13.0,72,0.00,,,0.00,WUHU216DAVISVP2,2013-04-13 16:42:00,
2013-04-13 12:48:00,46.7,37.9,29.85,West,266,8.0,13.0,71,0.00,,,0.00,WUHU216DAVISVP2,2013-04-13 16:48:00,
2013-04-13 12:53:00,46.5,38.0,29.85,SSW,211,2.0,17.0,72,0.00,,,0.00,WUHU216DAVISVP2,2013-04-13 16:53:00,
2013-04-13 12:59:00,46.4,38.3,29.85,South,186,5.0,17.0,73,0.00,,,0.00,WUHU216DAVISVP2,2013-04-13 16:59:00,
2013-04-13 13:04:00,46.4,38.3,29.85,WSW,239,2.0,17.0,73,0.00,,,0.00,WUHU216DAVISVP2,2013-04-13 17:04:00,
2013-04-13 13:10:00,46.7,38.2,29.84,WSW,258,5.0,13.0,72,0.00,,,0.00,WUHU216DAVISVP2,2013-04-13 17:10:00,
2013-04-13 13:16:00,46.8,38.0,29.84,SW,226,8.0,13.0,71,0.00,,,0.00,WUHU216DAVISVP2,2013-04-13 17:16:00,
2013-04-13 13:21:00,46.9,37.7,29.84,West,262,8.0,14.0,70,0.00,,,0.00,WUHU216DAVISVP2,2013-04-13 17:21:00,
2013-04-13 13:26:00,46.9,38.8,29.84,WSW,240,7.0,14.0,73,0.00,,,0.00,WUHU216DAVISVP2,2013-04-13 17:26:00,
2013-04-13 13:32:00,46.1,39.0,29.85,West,280,6.0,14.0,76,0.00,,,0.00,WUHU216DAVISVP2,2013-04-13 17:32:00,
2013-04-13 13:37:00,45.4,39.6,29.85,WSW,250,2.0,14.0,80,0.00,,,0.00,WUHU216DAVISVP2,2013-04-13 17:37:00,
2013-04-13 13:43:00,45.2,39.1,29.85,WSW,252,7.0,14.0,79,0.00,,,0.00,WUHU216DAVISVP2,2013-04-13 17:43:00,
2013-04-13 13:50:00,44.9,39.4,29.86,WSW,250,4.0,9.0,81,0.00,,,0.00,WUHU216DAVISVP2,2013-04-13 17:50:00,
2013-04-13 13:56:00,44.4,39.6,29.86,WSW,255,4.0,11.0,83,0.00,,,0.00,WUHU216DAVISVP2,2013-04-13 17:56:00,
2013-04-13 14:02:00,44.5,39.4,29.86,WSW,256,6.0,13.0,82,0.00,,,0.00,WUHU216DAVISVP2,2013-04-13 18:02:00,
2013-04-13 14:07:00,44.8,38.7,29.86,WSW,246,5.0,13.0,79,0.00,,,0.00,WUHU216DAVISVP2,2013-04-13 18:07:00,
2013-04-13 14:13:00,44.8,38.4,29.86,SW,233,7.0,13.0,78,0.00,,,0.00,WUHU216DAVISVP2,2013-04-13 18:13:00,
2013-04-13 14:18:00,44.9,38.8,29.86,WSW,253,4.0,12.0,79,0.00,,,0.00,WUHU216DAVISVP2,2013-04-13 18:18:00,
2013-04-13 14:23:00,45.2,38.5,29.86,West,281,8.0,14.0,77,0.00,,,0.00,WUHU216DAVISVP2,2013-04-13 18:23:00,
2013-04-13 14:27:00,45.2,37.8,29.86,WSW,258,7.0,20.0,75,0.00,,,0.00,WUHU216DAVISVP2,2013-04-13 18:27:00,
2013-04-13 14:34:00,45.2,37.8,29.86,NW,314,5.0,20.0,75,0.01,,,0.01,WUHU216DAVISVP2,2013-04-13 18:34:00,
2013-04-13 14:39:00,44.2,36.8,29.87,WNW,295,11.0,21.0,75,0.01,,,0.01,WUHU216DAVISVP2,2013-04-13 18:39:00,
2013-04-13 14:45:00,43.7,37.0,29.87,WSW,253,11.0,21.0,77,0.01,,,0.01,WUHU216DAVISVP2,2013-04-13 18:45:00,
2013-04-13 14:51:00,43.6,36.6,29.87,West,262,8.0,21.0,76,0.01,,,0.01,WUHU216DAVISVP2,2013-04-13 18:51:00,
2013-04-13 14:56:00,43.8,36.5,29.87,WSW,248,6.0,17.0,75,0.01,,,0.01,WUHU216DAVISVP2,2013-04-13 18:56:00,
2013-04-13 15:02:00,44.3,35.8,29.87,WSW,250,3.0,14.0,72,0.01,,,0.01,WUHU216DAVISVP2,2013-04-13 19:02:00,
2013-04-13 15:08:00,44.6,35.9,29.87,West,267,8.0,14.0,71,0.01,,,0.01,WUHU216DAVISVP2,2013-04-13 19:08:00,
2013-04-13 15:13:00,44.9,35.4,29.87,WSW,253,5.0,14.0,69,0.01,,,0.01,WUHU216DAVISVP2,2013-04-13 19:13:00,
2013-04-13 15:18:00,45.1,34.9,29.87,WSW,240,8.0,16.0,67,0.01,,,0.01,WUHU216DAVISVP2,2013-04-13 19:18:00,
2013-04-13 15:23:00,45.3,34.3,29.87,WSW,247,6.0,17.0,65,0.01,,,0.01,WUHU216DAVISVP2,2013-04-13 19:23:00,
2013-04-13 15:29:00,45.6,34.6,29.87,SW,236,10.0,17.0,65,0.01,,,0.01,WUHU216DAVISVP2,2013-04-13 19:29:00,
2013-04-13 15:34:00,45.8,35.2,29.87,WSW,240,6.0,17.0,66,0.00,,,0.01,WUHU216DAVISVP2,2013-04-13 19:34:00,
2013-04-13 15:39:00,46.2,34.8,29.86,SSW,200,10.0,13.0,64,0.00,,,0.01,WUHU216DAVISVP2,2013-04-13 19:39:00,
2013-04-13 15:44:00,46.5,34.3,29.87,WSW,250,4.0,13.0,62,0.00,,,0.01,WUHU216DAVISVP2,2013-04-13 19:44:00,
2013-04-13 15:50:00,46.7,34.0,29.87,WSW,249,10.0,13.0,61,0.00,,,0.01,WUHU216DAVISVP2,2013-04-13 19:50:00,
2013-04-13 15:55:00,46.9,32.5,29.87,WSW,250,7.0,22.0,57,0.00,,,0.01,WUHU216DAVISVP2,2013-04-13 19:55:00,
2013-04-13 16:00:00,47.0,32.2,29.86,WNW,285,8.0,22.0,56,0.00,,,0.01,WUHU216DAVISVP2,2013-04-13 20:00:00,
2013-04-13 16:06:00,46.8,32.0,29.86,WNW,290,7.0,22.0,56,0.00,,,0.01,WUHU216DAVISVP2,2013-04-13 20:06:00,
2013-04-13 16:12:00,46.7,32.3,29.86,WSW,240,6.0,22.0,57,0.00,,,0.01,WUHU216DAVISVP2,2013-04-13 20:12:00,
2013-04-13 16:18:00,46.6,32.7,29.86,WNW,284,5.0,14.0,58,0.00,,,0.01,WUHU216DAVISVP2,2013-04-13 20:18:00,
2013-04-13 16:24:00,46.6,32.7,29.86,West,273,4.0,14.0,58,0.00,,,0.01,WUHU216DAVISVP2,2013-04-13 20:24:00,
2013-04-13 16:29:00,46.6,32.7,29.86,West,269,4.0,10.0,58,0.00,,,0.01,WUHU216DAVISVP2,2013-04-13 20:29:00,
2013-04-13 16:34:00,46.5,33.4,29.87,WSW,250,6.0,10.0,60,0.00,,,0.01,WUHU216DAVISVP2,2013-04-13 20:34:00,
2013-04-13 16:39:00,46.5,33.0,29.87,WSW,239,5.0,13.0,59,0.00,,,0.01,WUHU216DAVISVP2,2013-04-13 20:39:00,
2013-04-13 16:45:00,46.5,33.4,29.86,WSW,255,5.0,13.0,60,0.00,,,0.01,WUHU216DAVISVP2,2013-04-13 20:45:00,
2013-04-13 16:50:00,46.7,33.2,29.86,WSW,255,3.0,12.0,59,0.00,,,0.01,WUHU216DAVISVP2,2013-04-13 20:50:00,
2013-04-13 16:55:00,46.6,33.5,29.87,West,280,2.0,12.0,60,0.00,,,0.01,WUHU216DAVISVP2,2013-04-13 20:55:00,
2013-04-13 17:01:00,46.7,33.2,29.87,WNW,288,3.0,9.0,59,0.00,,,0.01,WUHU216DAVISVP2,2013-04-13 21:01:00,
2013-04-13 17:06:00,46.7,33.2,29.87,SW,221,6.0,9.0,59,0.00,,,0.01,WUHU216DAVISVP2,2013-04-13 21:06:00,
2013-04-13 17:11:00,46.5,32.6,29.87,SSE,158,2.0,13.0,58,0.00,,,0.01,WUHU216DAVISVP2,2013-04-13 21:11:00,
2013-04-13 17:16:00,46.5,32.5,29.87,West,273,3.0,13.0,58,0.00,,,0.01,WUHU216DAVISVP2,2013-04-13 21:16:00,
2013-04-13 17:22:00,46.6,33.0,29.87,SW,233,3.0,12.0,59,0.00,,,0.01,WUHU216DAVISVP2,2013-04-13 21:22:00,
2013-04-13 17:27:00,46.6,33.1,29.87,WSW,250,2.0,7.0,59,0.00,,,0.01,WUHU216DAVISVP2,2013-04-13 21:27:00,
2013-04-13 17:32:00,46.7,33.2,29.87,WSW,256,2.0,7.0,59,0.00,,,0.01,WUHU216DAVISVP2,2013-04-13 21:32:00,
2013-04-13 17:38:00,46.7,33.2,29.88,WNW,286,6.0,6.0,59,0.00,,,0.01,WUHU216DAVISVP2,2013-04-13 21:38:00,
2013-04-13 17:43:00,46.6,32.7,29.88,WSW,255,5.0,8.0,58,0.00,,,0.01,WUHU216DAVISVP2,2013-04-13 21:43:00,
2013-04-13 17:48:00,46.6,33.1,29.88,WNW,283,2.0,8.0,59,0.00,,,0.01,WUHU216DAVISVP2,2013-04-13 21:48:00,
2013-04-13 17:53:00,46.5,33.4,29.88,West,267,5.0,8.0,60,0.00,,,0.01,WUHU216DAVISVP2,2013-04-13 21:53:00,
2013-04-13 17:59:00,46.5,33.4,29.89,NNW,327,1.0,7.0,60,0.00,,,0.01,WUHU216DAVISVP2,2013-04-13 21:59:00,
2013-04-13 18:04:00,46.4,33.8,29.89,NW,306,2.0,7.0,61,0.00,,,0.01,WUHU216DAVISVP2,2013-04-13 22:04:00,
2013-04-13 18:09:00,46.1,33.5,29.89,WNW,298,6.0,7.0,61,0.00,,,0.01,WUHU216DAVISVP2,2013-04-13 22:09:00,
2013-04-13 18:14:00,45.9,33.3,29.89,WNW,285,5.0,8.0,61,0.00,,,0.01,WUHU216DAVISVP2,2013-04-13 22:14:00,
2013-04-13 18:20:00,45.8,33.6,29.90,WNW,299,4.0,11.0,62,0.00,,,0.01,WUHU216DAVISVP2,2013-04-13 22:20:00,
2013-04-13 18:25:00,45.5,33.7,29.90,West,278,6.0,11.0,63,0.00,,,0.01,WUHU216DAVISVP2,2013-04-13 22:25:00,
2013-04-13 18:31:00,45.3,34.3,29.91,West,273,3.0,11.0,65,0.00,,,0.01,WUHU216DAVISVP2,2013-04-13 22:31:00,
2013-04-13 18:36:00,44.8,35.7,29.92,NNW,338,14.0,16.0,70,0.00,,,0.01,WUHU216DAVISVP2,2013-04-13 22:36:00,
2013-04-13 18:41:00,44.1,36.0,29.92,NW,306,4.0,16.0,73,0.00,,,0.01,WUHU216DAVISVP2,2013-04-13 22:41:00,
2013-04-13 18:46:00,43.5,36.2,29.92,WNW,283,5.0,16.0,75,0.00,,,0.01,WUHU216DAVISVP2,2013-04-13 22:46:00,
2013-04-13 18:51:00,43.2,36.2,29.92,North,349,4.0,16.0,76,0.00,,,0.01,WUHU216DAVISVP2,2013-04-13 22:51:00,
2013-04-13 18:56:00,42.9,36.2,29.91,NNW,341,3.0,15.0,77,0.00,,,0.01,WUHU216DAVISVP2,2013-04-13 22:56:00,
2013-04-13 19:01:00,42.8,36.5,29.91,NW,326,3.0,11.0,78,0.00,,,0.01,WUHU216DAVISVP2,2013-04-13 23:01:00,
2013-04-13 19:06:00,42.7,36.0,29.91,NW,309,8.0,9.0,77,0.00,,,0.01,WUHU216DAVISVP2,2013-04-13 23:06:00,
2013-04-13 19:11:00,42.6,36.3,29.92,WNW,291,3.0,9.0,78,0.00,,,0.01,WUHU216DAVISVP2,2013-04-13 23:11:00,
2013-04-13 19:17:00,42.5,35.8,29.92,West,277,5.0,9.0,77,0.00,,,0.01,WUHU216DAVISVP2,2013-04-13 23:17:00,
2013-04-13 19:22:00,42.5,35.8,29.92,West,262,6.0,11.0,77,0.00,,,0.01,WUHU216DAVISVP2,2013-04-13 23:22:00,
2013-04-13 19:27:00,42.5,35.5,29.92,WNW,303,7.0,15.0,76,0.00,,,0.01,WUHU216DAVISVP2,2013-04-13 23:27:00,
2013-04-13 19:34:00,42.4,35.4,29.92,WNW,290,3.0,15.0,76,0.00,,,0.01,WUHU216DAVISVP2,2013-04-13 23:34:00,
2013-04-13 19:39:00,42.4,35.7,29.93,West,269,5.0,15.0,77,0.00,,,0.01,WUHU216DAVISVP2,2013-04-13 23:39:00,
2013-04-13 19:46:00,42.4,35.4,29.93,WSW,249,5.0,12.0,76,0.00,,,0.01,WUHU216DAVISVP2,2013-04-13 23:46:00,
2013-04-13 19:51:00,42.3,35.6,29.93,NW,314,1.0,12.0,77,0.00,,,0.01,WUHU216DAVISVP2,2013-04-13 23:51:00,
2013-04-13 19:56:00,42.2,35.8,29.93,WNW,300,5.0,12.0,78,0.00,,,0.01,WUHU216DAVISVP2,2013-04-13 23:56:00,
2013-04-13 20:02:00,42.1,35.7,29.93,West,274,4.0,13.0,78,0.00,,,0.01,WUHU216DAVISVP2,2013-04-14 00:02:00,
2013-04-13 20:07:00,41.8,35.8,29.93,West,266,5.0,13.0,79,0.00,,,0.01,WUHU216DAVISVP2,2013-04-14 00:07:00,
2013-04-13 20:13:00,41.7,35.7,29.93,West,267,4.0,13.0,79,0.00,,,0.01,WUHU216DAVISVP2,2013-04-14 00:13:00,
2013-04-13 20:18:00,41.7,35.7,29.93,SSE,162,3.0,13.0,79,0.00,,,0.01,WUHU216DAVISVP2,2013-04-14 00:18:00,
2013-04-13 20:24:00,41.7,36.0,29.94,West,271,3.0,13.0,80,0.00,,,0.01,WUHU216DAVISVP2,2013-04-14 00:24:00,
2013-04-13 20:29:00,41.7,36.0,29.94,West,266,3.0,13.0,80,0.00,,,0.01,WUHU216DAVISVP2,2013-04-14 00:29:00,
2013-04-13 20:34:00,41.6,35.9,29.94,WNW,297,8.0,12.0,80,0.00,,,0.01,WUHU216DAVISVP2,2013-04-14 00:34:00,
2013-04-13 20:40:00,41.7,36.0,29.94,WNW,290,2.0,12.0,80,0.00,,,0.01,WUHU216DAVISVP2,2013-04-14 00:40:00,
2013-04-13 20:45:00,41.6,35.9,29.94,West,278,6.0,12.0,80,0.00,,,0.01,WUHU216DAVISVP2,2013-04-14 00:45:00,
2013-04-13 20:52:00,41.6,35.6,29.94,WSW,243,5.0,12.0,79,0.00,,,0.01,WUHU216DAVISVP2,2013-04-14 00:52:00,
2013-04-13 20:57:00,41.7,35.7,29.95,WSW,245,1.0,8.0,79,0.00,,,0.01,WUHU216DAVISVP2,2013-04-14 00:57:00,
2013-04-13 21:04:00,41.6,35.6,29.95,WNW,287,5.0,8.0,79,0.00,,,0.01,WUHU216DAVISVP2,2013-04-14 01:04:00,
2013-04-13 21:09:00,41.7,35.7,29.95,West,281,3.0,8.0,79,0.00,,,0.01,WUHU216DAVISVP2,2013-04-14 01:09:00,
2013-04-13 21:15:00,41.7,35.7,29.95,WSW,255,4.0,8.0,79,0.00,,,0.01,WUHU216DAVISVP2,2013-04-14 01:15:00,
2013-04-13 21:20:00,41.7,35.7,29.95,West,259,1.0,8.0,79,0.00,,,0.01,WUHU216DAVISVP2,2013-04-14 01:20:00,
2013-04-13 21:27:00,41.7,35.7,29.95,West,280,2.0,7.0,79,0.00,,,0.01,WUHU216DAVISVP2,2013-04-14 01:27:00,
2013-04-13 21:33:00,41.7,36.0,29.95,WSW,252,1.0,7.0,80,0.00,,,0.01,WUHU216DAVISVP2,2013-04-14 01:33:00,
2013-04-13 21:38:00,41.6,35.6,29.95,WNW,287,1.0,7.0,79,0.00,,,0.01,WUHU216DAVISVP2,2013-04-14 01:38:00,
2013-04-13 21:43:00,41.6,35.9,29.95,SW,229,2.0,6.0,80,0.00,,,0.01,WUHU216DAVISVP2,2013-04-14 01:43:00,
2013-04-13 21:48:00,41.6,35.9,29.95,SSW,209,1.0,5.0,80,0.00,,,0.01,WUHU216DAVISVP2,2013-04-14 01:48:00,
2013-04-13 21:53:00,41.5,36.1,29.95,WSW,245,2.0,5.0,81,0.00,,,0.01,WUHU216DAVISVP2,2013-04-14 01:53:00,
2013-04-13 21:58:00,41.5,35.8,29.95,SW,225,0.0,7.0,80,0.00,,,0.01,WUHU216DAVISVP2,2013-04-14 01:58:00,
2013-04-13 22:04:00,41.4,36.0,29.95,West,269,4.0,7.0,81,0.00,,,0.01,WUHU216DAVISVP2,2013-04-14 02:04:00,
2013-04-13 22:09:00,41.3,35.9,29.95,SW,224,3.0,7.0,81,0.00,,,0.01,WUHU216DAVISVP2,2013-04-14 02:09:00,
2013-04-13 22:14:00,41.3,35.9,29.95,WSW,252,4.0,7.0,81,0.00,,,0.01,WUHU216DAVISVP2,2013-04-14 02:14:00,
2013-04-13 22:19:00,41.3,35.9,29.95,SSW,212,3.0,7.0,81,0.00,,,0.01,WUHU216DAVISVP2,2013-04-14 02:19:00,
2013-04-13 22:24:00,41.2,36.1,29.95,SSW,205,2.0,7.0,82,0.00,,,0.01,WUHU216DAVISVP2,2013-04-14 02:24:00,
2013-04-13 22:29:00,41.2,36.1,29.95,SSW,203,2.0,7.0,82,0.00,,,0.01,WUHU216DAVISVP2,2013-04-14 02:29:00,
2013-04-13 22:36:00,41.0,36.2,29.95,SE,138,3.0,5.0,83,0.00,,,0.01,WUHU216DAVISVP2,2013-04-14 02:36:00,
2013-04-13 22:42:00,40.9,36.1,29.95,SSW,210,2.0,5.0,83,0.00,,,0.01,WUHU216DAVISVP2,2013-04-14 02:42:00,
2013-04-13 22:47:00,41.0,36.2,29.95,WSW,258,3.0,7.0,83,0.00,,,0.01,WUHU216DAVISVP2,2013-04-14 02:47:00,
2013-04-13 22:52:00,41.1,35.7,29.95,WSW,243,9.0,12.0,81,0.00,,,0.01,WUHU216DAVISVP2,2013-04-14 02:52:00,
2013-04-13 22:58:00,41.3,35.6,29.95,WSW,255,6.0,12.0,80,0.00,,,0.01,WUHU216DAVISVP2,2013-04-14 02:58:00,
2013-04-13 23:03:00,41.5,35.5,29.95,West,273,6.0,11.0,79,0.00,,,0.01,WUHU216DAVISVP2,2013-04-14 03:03:00,
2013-04-13 23:11:00,41.6,35.3,29.95,West,262,5.0,12.0,78,0.00,,,0.01,WUHU216DAVISVP2,2013-04-14 03:11:00,
2013-04-13 23:17:00,41.6,35.3,29.95,WSW,242,4.0,12.0,78,0.00,,,0.01,WUHU216DAVISVP2,2013-04-14 03:17:00,
2013-04-13 23:22:00,41.6,35.3,29.95,WSW,243,4.0,11.0,78,0.00,,,0.01,WUHU216DAVISVP2,2013-04-14 03:22:00,
2013-04-13 23:28:00,41.6,35.3,29.95,West,276,3.0,11.0,78,0.00,,,0.01,WUHU216DAVISVP2,2013-04-14 03:28:00,
2013-04-13 23:33:00,41.8,34.8,29.95,WSW,253,7.0,16.0,76,0.00,,,0.01,WUHU216DAVISVP2,2013-04-14 03:33:00,
2013-04-13 23:38:00,41.8,34.5,29.96,WSW,249,9.0,16.0,75,0.00,,,0.01,WUHU216DAVISVP2,2013-04-14 03:38:00,
2013-04-13 23:43:00,41.8,34.2,29.96,WNW,288,14.0,16.0,74,0.00,,,0.01,WUHU216DAVISVP2,2013-04-14 03:43:00,
2013-04-13 23:48:00,41.8,33.8,29.96,WSW,256,6.0,16.0,73,0.00,,,0.01,WUHU216DAVISVP2,2013-04-14 03:48:00,
2013-04-13 23:53:00,41.7,34.0,29.96,West,269,1.0,14.0,74,0.00,,,0.01,WUHU216DAVISVP2,2013-04-14 03:53:00,
2013-04-13 23:58:00,41.6,34.3,29.96,WSW,252,3.0,14.0,75,0.00,,,0.01,WUHU216DAVISVP2,2013-04-14 03:58:00,